Location: Alt?nova Orta
(36.9295°N, 30.7847°E)
Time: 10:51:14
(UTC+00:00)

Cosmos 2221 - Pass Details

Date: 17 February 2020
Orbit: 593 x 616 km, 82.5° (Epoch: 04 April)

Event Time Altitude Azimuth Distance (km) Brightness Sun altitude
Rises 04:13:52 0° 232° (SW) 2,821 5.5 -6.7°
Reaches altitude 10° 04:17:14 10° 261° (W) 1,928 4.5 -6.0°
Maximum altitude 04:19:11 13° 288° (WNW) 1,752 4.2 -5.7°
Drops below altitude 10° 04:21:08 10° 316° (NW) 1,939 4.6 -5.3°
Sets 04:24:33 0° 345° (NNW) 2,852 5.7 -4.6°
